Flag for Germany Weather past 2 weeks in Remscheid, North Rhine-Westphalia, Germany

Now
63 °F

Mostly cloudy.


Feels Like: 63 °F
Forecast: 44 / 55 °F
Wind: 2 mph from Northwest

Location: Duesseldorf

Current Time: Sep 21, 2014 at 2:05:28 AM

Latest Report: Sep 21, 2014 at 1:20 AM


Visibility: 5 mi

Pressure: 29.98 "Hg

Humidity: 88%

Dew point: 59 °F

Location of RemscheidLocation

Historic Weather in Remscheid — Graph

°F

Remscheid temperature yesterday

Maximum temperature yesterday: 75 °F (at 3:20 PM)
Minimum temperature yesterday: 61 °F (at 12:50 AM)
Average temperature yesterday: 65 °F

Past Weeks' High & Low Weather Summary

 TemperatureHumidityPressure
High77 °F (Sep 17, 2:20 PM)100% (Sep 8, 6:50 AM)30.24 "Hg (Sep 8, 6:50 AM)
Low46 °F (Sep 12, 5:50 AM)46% (Sep 11, 4:50 PM)29.83 "Hg (Sep 18, 4:50 AM)
Average63 °F79%30.02 "Hg
* Reported Sep 6 12:20 AM — Sep 21 12:20 AM, Remscheid, Weather by CustomWeather, © 2014

Note: Actual official high and low records may vary slightly from our data, if they occured in-between our weather recording intervals... More about our weather records

Advertising

Remscheid weather history for previous 24 hours

 ConditionsComfort  
Time TempWeatherWind HumidityBarometerVisibility
12:20 AM
Sep 21
63 °FMostly cloudy.3 mph88%29.98 "HgN/A
11:50 PM
Sep 20
63 °FMostly cloudy.1 mph88%29.98 "HgN/A
11:20 PM61 °FPassing clouds.1 mph94%29.98 "HgN/A
10:20 PM61 °FPartly cloudy.1 mph88%29.95 "HgN/A
9:50 PM61 °FPassing clouds.1 mph88%29.95 "HgN/A
9:20 PM63 °FFog.1 mph77%29.95 "HgN/A
8:50 PM64 °FPassing clouds.2 mph78%29.95 "HgN/A
8:20 PM64 °FPartly sunny.2 mph78%29.95 "HgN/A
7:50 PM68 °FPartly sunny.7 mph64%29.95 "HgN/A
3:20 PM75 °FPassing clouds.3 mph65%29.92 "HgN/A
2:50 PM73 °FPassing clouds.3 mph74%29.92 "HgN/A
2:20 PM73 °FScattered clouds.7 mph69%29.95 "HgN/A
1:50 PM72 °FPartly sunny.8 mph73%29.95 "HgN/A
1:20 PM72 °FPartly sunny.8 mph73%29.95 "HgN/A
12:50 PM72 °FBroken clouds.7 mph69%29.95 "HgN/A
12:20 PM70 °FPartly sunny.8 mph78%29.95 "HgN/A
11:50 AM72 °FScattered clouds.3 mph69%29.95 "HgN/A
11:20 AM70 °FScattered clouds.5 mph73%29.95 "HgN/A
10:50 AM68 °FScattered clouds.5 mph78%29.95 "Hg6 mi
10:20 AM66 °FScattered clouds.5 mph88%29.95 "Hg6 mi
9:50 AM64 °FThundershowers. Scattered clouds.5 mph94%29.95 "Hg6 mi
9:20 AM64 °FThundershowers. Scattered clouds.3 mph94%29.95 "HgN/A
8:50 AM63 °FScattered clouds.5 mph94%29.95 "HgN/A
8:20 AM63 °FScattered clouds.6 mph94%29.92 "HgN/A
7:50 AM63 °FPassing clouds.6 mph94%29.92 "HgN/A
7:20 AM61 °FClear.5 mph94%29.92 "Hg10 mi
6:50 AM61 °FClear.5 mph100%29.92 "Hg10 mi
6:20 AM63 °FClear.3 mph94%29.92 "Hg10 mi
5:50 AM61 °FClear.7 mph100%29.92 "Hg10 mi
5:20 AM61 °FFog.6 mph100%29.92 "HgN/A
4:50 AM63 °FClear.5 mph94%29.92 "Hg10 mi
4:20 AM63 °FFog.5 mph94%29.92 "HgN/A
3:20 AM61 °FFog.2 mph94%29.89 "HgN/A
2:20 AM61 °FPassing clouds.2 mph94%29.92 "HgN/A
Weather by CustomWeather, © 2014

See weather overviewHow to use our weather pages